Time,TemperatureF,DewpointF,PressureIn,WindDirection,WindDirectionDegrees,WindSpeedMPH,WindSpeedGustMPH,Humidity,HourlyPrecipIn,Conditions,Clouds,dailyrainin,SoftwareType,DateUTC
2015-09-04 00:01:00,71.8,70.0,29.95,SSW,204,0.0,0.0,94,0.00,,,0.00,WeatherCatV1.24B11,2015-09-04 04:01:00,
2015-09-04 00:06:00,71.8,70.0,29.95,SSW,204,0.0,0.0,94,0.00,,,0.00,WeatherCatV1.24B11,2015-09-04 04:06:00,
2015-09-04 00:11:00,71.8,70.0,29.95,SSW,204,0.0,0.0,94,0.00,,,0.00,WeatherCatV1.24B11,2015-09-04 04:11:00,
2015-09-04 00:16:00,71.8,70.0,29.95,SSW,205,0.0,0.0,94,0.00,,,0.00,WeatherCatV1.24B11,2015-09-04 04:16:00,
2015-09-04 00:21:00,71.8,70.0,29.96,SSW,204,0.0,0.0,94,0.00,,,0.00,WeatherCatV1.24B11,2015-09-04 04:21:00,
2015-09-04 00:26:00,71.7,69.9,29.96,SSW,204,0.0,0.0,94,0.00,,,0.00,WeatherCatV1.24B11,2015-09-04 04:26:00,
2015-09-04 00:31:00,71.7,69.9,29.96,SSW,204,0.0,0.0,94,0.00,,,0.00,WeatherCatV1.24B11,2015-09-04 04:31:00,
2015-09-04 00:36:00,71.7,69.9,29.96,SSW,203,0.0,0.0,94,1.19,,,0.04,WeatherCatV1.24B11,2015-09-04 04:36:00,
2015-09-04 00:46:00,71.8,70.3,29.96,SSW,203,0.0,0.0,95,0.13,,,0.08,WeatherCatV1.24B11,2015-09-04 04:46:00,
2015-09-04 00:51:00,71.8,70.3,29.97,SSW,203,0.0,0.0,95,0.06,,,0.08,WeatherCatV1.24B11,2015-09-04 04:51:00,
2015-09-04 00:56:00,71.8,70.3,29.97,SSW,203,0.0,0.0,95,0.04,,,0.08,WeatherCatV1.24B11,2015-09-04 04:56:00,
2015-09-04 01:01:00,71.8,70.3,29.97,SSW,203,0.0,0.0,95,0.00,,,0.08,WeatherCatV1.24B11,2015-09-04 05:01:00,
2015-09-04 01:06:00,71.8,70.3,29.97,SSW,203,0.0,0.0,95,0.00,,,0.08,WeatherCatV1.24B11,2015-09-04 05:06:00,
2015-09-04 01:11:00,71.7,70.2,29.96,SSW,203,0.0,0.0,95,0.00,,,0.08,WeatherCatV1.24B11,2015-09-04 05:11:00,
2015-09-04 01:16:00,71.8,70.3,29.96,SSW,203,0.0,0.0,95,0.00,,,0.08,WeatherCatV1.24B11,2015-09-04 05:16:00,
2015-09-04 01:21:00,71.7,70.2,29.97,SSW,204,0.0,0.0,95,0.00,,,0.08,WeatherCatV1.24B11,2015-09-04 05:21:00,
2015-09-04 01:26:00,71.6,70.1,29.96,SSW,203,0.0,0.0,95,0.00,,,0.08,WeatherCatV1.24B11,2015-09-04 05:26:00,
2015-09-04 01:31:00,71.6,70.1,29.97,SSW,203,0.0,0.0,95,0.00,,,0.08,WeatherCatV1.24B11,2015-09-04 05:31:00,
2015-09-04 01:36:00,71.5,70.0,29.97,SSW,203,0.0,0.0,95,0.00,,,0.08,WeatherCatV1.24B11,2015-09-04 05:36:00,
2015-09-04 01:41:00,71.4,69.9,29.97,SSW,207,0.0,0.0,95,0.00,,,0.08,WeatherCatV1.24B11,2015-09-04 05:41:00,
2015-09-04 01:46:00,71.4,69.9,29.97,SSW,207,0.0,0.0,95,0.00,,,0.08,WeatherCatV1.24B11,2015-09-04 05:46:00,
2015-09-04 01:51:00,71.2,69.7,29.97,SSW,207,0.0,0.0,95,0.00,,,0.08,WeatherCatV1.24B11,2015-09-04 05:51:00,
2015-09-04 01:56:00,71.1,69.6,29.97,SSW,207,0.0,0.0,95,0.00,,,0.08,WeatherCatV1.24B11,2015-09-04 05:56:00,
2015-09-04 02:01:00,71.1,69.6,29.97,SSW,207,0.0,0.0,95,0.00,,,0.08,WeatherCatV1.24B11,2015-09-04 06:01:00,
2015-09-04 02:06:00,71.1,69.6,29.97,SSW,207,0.0,0.0,95,0.00,,,0.08,WeatherCatV1.24B11,2015-09-04 06:06:00,
2015-09-04 02:11:00,71.0,69.5,29.97,SSW,207,0.0,0.0,95,0.00,,,0.08,WeatherCatV1.24B11,2015-09-04 06:11:00,
2015-09-04 02:16:00,71.0,69.5,29.97,SSW,207,0.0,0.0,95,0.00,,,0.08,WeatherCatV1.24B11,2015-09-04 06:16:00,
2015-09-04 02:21:00,71.0,69.5,29.97,SSW,207,0.0,0.0,95,0.00,,,0.08,WeatherCatV1.24B11,2015-09-04 06:21:00,
2015-09-04 02:26:00,71.0,69.5,29.97,SSW,207,0.0,0.0,95,0.00,,,0.08,WeatherCatV1.24B11,2015-09-04 06:26:00,
2015-09-04 02:31:00,70.9,69.4,29.97,SSW,207,0.0,0.0,95,0.00,,,0.08,WeatherCatV1.24B11,2015-09-04 06:31:00,
2015-09-04 02:36:00,70.9,69.4,29.97,SSW,207,0.0,0.0,95,0.00,,,0.08,WeatherCatV1.24B11,2015-09-04 06:36:00,
2015-09-04 02:41:00,70.9,69.4,29.97,SSW,207,0.0,0.0,95,0.00,,,0.08,WeatherCatV1.24B11,2015-09-04 06:41:00,
2015-09-04 02:46:00,70.8,69.6,29.97,SSW,207,0.0,0.0,96,0.00,,,0.08,WeatherCatV1.24B11,2015-09-04 06:46:00,
2015-09-04 02:51:00,70.7,69.2,29.97,SSW,207,0.0,0.0,95,0.00,,,0.08,WeatherCatV1.24B11,2015-09-04 06:51:00,
2015-09-04 02:56:00,70.6,69.1,29.98,SSW,207,0.0,0.0,95,0.00,,,0.08,WeatherCatV1.24B11,2015-09-04 06:56:00,
2015-09-04 03:01:00,70.5,69.3,29.98,SSW,207,0.0,0.0,96,0.00,,,0.08,WeatherCatV1.24B11,2015-09-04 07:01:00,
2015-09-04 03:06:00,70.5,69.3,29.98,SSW,207,0.0,0.0,96,0.00,,,0.08,WeatherCatV1.24B11,2015-09-04 07:06:00,
2015-09-04 03:11:00,70.4,69.2,29.99,SSW,207,0.0,0.0,96,0.00,,,0.08,WeatherCatV1.24B11,2015-09-04 07:11:00,
2015-09-04 03:16:00,70.3,69.1,29.99,SSW,213,0.0,0.0,96,0.00,,,0.08,WeatherCatV1.24B11,2015-09-04 07:16:00,
2015-09-04 03:21:00,70.2,69.0,29.99,SSW,212,0.0,0.0,96,0.00,,,0.08,WeatherCatV1.24B11,2015-09-04 07:21:00,
2015-09-04 03:26:00,70.0,68.5,29.99,SSW,212,0.0,0.0,95,0.00,,,0.08,WeatherCatV1.24B11,2015-09-04 07:26:00,
2015-09-04 03:31:00,69.8,68.3,29.99,SSW,212,0.0,0.0,95,0.00,,,0.08,WeatherCatV1.24B11,2015-09-04 07:31:00,
2015-09-04 03:36:00,69.7,68.2,30.00,SSW,212,0.0,0.0,95,0.00,,,0.08,WeatherCatV1.24B11,2015-09-04 07:36:00,
2015-09-04 03:41:00,69.7,68.5,30.00,ESE,115,0.0,1.0,96,0.00,,,0.08,WeatherCatV1.24B11,2015-09-04 07:41:00,
2015-09-04 03:46:00,69.6,68.4,30.00,NE,51,0.0,2.0,96,0.00,,,0.08,WeatherCatV1.24B11,2015-09-04 07:46:00,
2015-09-04 03:51:00,69.6,68.4,30.01,South,181,0.0,0.0,96,0.00,,,0.08,WeatherCatV1.24B11,2015-09-04 07:51:00,
2015-09-04 03:56:00,69.6,68.4,30.01,ENE,68,0.0,1.0,96,0.00,,,0.08,WeatherCatV1.24B11,2015-09-04 07:56:00,
2015-09-04 04:01:00,69.6,68.1,30.01,SSW,203,0.0,1.0,95,0.00,,,0.08,WeatherCatV1.24B11,2015-09-04 08:01:00,
2015-09-04 04:06:00,69.5,68.0,30.01,SSW,204,2.0,4.0,95,0.00,,,0.08,WeatherCatV1.24B11,2015-09-04 08:06:00,
2015-09-04 04:11:00,69.5,68.0,30.01,SW,235,0.0,2.0,95,0.00,,,0.08,WeatherCatV1.24B11,2015-09-04 08:11:00,
2015-09-04 04:16:00,69.5,68.0,30.01,WSW,239,0.0,1.0,95,0.00,,,0.08,WeatherCatV1.24B11,2015-09-04 08:16:00,
2015-09-04 04:21:00,69.5,68.0,30.02,WNW,302,4.0,5.0,95,0.00,,,0.08,WeatherCatV1.24B11,2015-09-04 08:21:00,
2015-09-04 04:26:00,69.5,68.0,30.02,ENE,69,1.0,8.0,95,0.00,,,0.08,WeatherCatV1.24B11,2015-09-04 08:26:00,
2015-09-04 04:31:00,69.5,68.0,30.02,SW,236,1.0,2.0,95,0.00,,,0.08,WeatherCatV1.24B11,2015-09-04 08:31:00,
2015-09-04 04:36:00,69.1,67.6,30.02,WSW,245,0.0,1.0,95,0.00,,,0.08,WeatherCatV1.24B11,2015-09-04 08:36:00,
2015-09-04 04:41:00,68.7,66.9,30.03,West,271,1.0,1.0,94,0.00,,,0.08,WeatherCatV1.24B11,2015-09-04 08:41:00,
2015-09-04 04:46:00,68.7,66.9,30.03,West,271,1.0,1.0,94,0.00,,,0.08,WeatherCatV1.24B11,2015-09-04 08:46:00,
2015-09-04 04:51:00,-999.9,-99.9,30.04,North,-9999,-999.9,0.0,-999,0.00,,,0.08,WeatherCatV1.24B11,2015-09-04 08:51:00,
2015-09-04 04:56:00,-999.9,-99.9,30.04,North,-9999,-999.9,0.0,-999,0.00,,,0.08,WeatherCatV1.24B11,2015-09-04 08:56:00,
2015-09-04 05:01:00,-999.9,-99.9,30.04,North,-9999,-999.9,0.0,-999,0.00,,,0.08,WeatherCatV1.24B11,2015-09-04 09:01:00,
2015-09-04 05:06:00,-999.9,-99.9,30.05,North,-9999,-999.9,0.0,-999,0.00,,,0.08,WeatherCatV1.24B11,2015-09-04 09:06:00,
2015-09-04 05:11:00,-999.9,-99.9,30.05,North,-9999,-999.9,0.0,-999,0.00,,,0.08,WeatherCatV1.24B11,2015-09-04 09:11:00,
2015-09-04 05:21:00,-999.9,-99.9,30.06,North,-9999,-999.9,0.0,-999,0.00,,,0.08,WeatherCatV1.24B11,2015-09-04 09:21:00,
2015-09-04 05:31:00,-999.9,-99.9,30.06,North,-9999,-999.9,0.0,-999,0.00,,,0.08,WeatherCatV1.24B11,2015-09-04 09:31:00,
2015-09-04 05:36:00,-999.9,-99.9,30.07,North,-9999,-999.9,0.0,-999,0.00,,,0.08,WeatherCatV1.24B11,2015-09-04 09:36:00,
2015-09-04 05:41:00,-999.9,-99.9,30.07,North,-9999,-999.9,0.0,-999,0.00,,,0.08,WeatherCatV1.24B11,2015-09-04 09:41:00,
2015-09-04 05:46:00,-999.9,-99.9,30.07,North,-9999,-999.9,0.0,-999,0.00,,,0.08,WeatherCatV1.24B11,2015-09-04 09:46:00,
2015-09-04 05:51:00,-999.9,-99.9,30.08,North,-9999,-999.9,0.0,-999,0.00,,,0.08,WeatherCatV1.24B11,2015-09-04 09:51:00,
2015-09-04 05:56:00,-999.9,-99.9,30.08,North,-9999,-999.9,0.0,-999,0.00,,,0.08,WeatherCatV1.24B11,2015-09-04 09:56:00,
2015-09-04 06:01:00,-999.9,-99.9,30.08,North,-9999,-999.9,0.0,-999,0.00,,,0.08,WeatherCatV1.24B11,2015-09-04 10:01:00,
2015-09-04 06:06:00,-999.9,-99.9,30.08,North,-9999,-999.9,0.0,-999,0.00,,,0.08,WeatherCatV1.24B11,2015-09-04 10:06:00,
2015-09-04 06:11:00,-999.9,-99.9,30.08,North,-9999,-999.9,0.0,-999,0.00,,,0.08,WeatherCatV1.24B11,2015-09-04 10:11:00,
2015-09-04 06:16:00,-999.9,-99.9,30.08,North,-9999,-999.9,0.0,-999,0.00,,,0.08,WeatherCatV1.24B11,2015-09-04 10:16:00,
2015-09-04 06:21:00,-999.9,-99.9,30.09,North,-9999,-999.9,0.0,-999,0.00,,,0.08,WeatherCatV1.24B11,2015-09-04 10:21:00,
2015-09-04 06:23:00,-999.9,-99.9,30.09,North,-9999,-999.9,0.0,-999,0.00,,,0.08,WeatherCatV1.24B11,2015-09-04 10:23:00,
2015-09-04 06:27:00,-999.9,-99.9,30.09,North,-9999,-999.9,0.0,-999,0.00,,,0.08,WeatherCatV1.24B11,2015-09-04 10:27:00,
2015-09-04 06:32:00,-999.9,-99.9,30.10,North,-9999,-999.9,0.0,-999,0.00,,,0.08,WeatherCatV1.24B11,2015-09-04 10:32:00,
2015-09-04 06:37:00,-999.9,-99.9,30.10,North,-9999,-999.9,0.0,-999,0.00,,,0.08,WeatherCatV1.24B11,2015-09-04 10:37:00,
2015-09-04 06:42:00,-999.9,-99.9,30.11,North,-9999,-999.9,0.0,-999,0.00,,,0.08,WeatherCatV1.24B11,2015-09-04 10:42:00,
2015-09-04 06:47:00,-999.9,-99.9,30.11,North,-9999,-999.9,0.0,-999,0.00,,,0.08,WeatherCatV1.24B11,2015-09-04 10:47:00,
2015-09-04 06:52:00,-999.9,-99.9,30.11,North,-9999,-999.9,0.0,-999,0.00,,,0.08,WeatherCatV1.24B11,2015-09-04 10:52:00,
2015-09-04 06:57:00,-999.9,-99.9,30.12,North,-9999,-999.9,0.0,-999,0.00,,,0.08,WeatherCatV1.24B11,2015-09-04 10:57:00,
2015-09-04 07:02:00,-999.9,-99.9,30.12,North,-9999,-999.9,0.0,-999,0.00,,,0.08,WeatherCatV1.24B11,2015-09-04 11:02:00,
2015-09-04 07:07:00,-999.9,-99.9,30.12,North,-9999,-999.9,0.0,-999,0.00,,,0.08,WeatherCatV1.24B11,2015-09-04 11:07:00,
2015-09-04 07:12:00,-999.9,-99.9,30.12,North,-9999,-999.9,0.0,-999,0.00,,,0.08,WeatherCatV1.24B11,2015-09-04 11:12:00,
2015-09-04 07:17:00,-999.9,-99.9,30.13,North,-9999,-999.9,0.0,-999,0.00,,,0.08,WeatherCatV1.24B11,2015-09-04 11:17:00,
2015-09-04 07:22:00,-999.9,-99.9,30.13,North,-9999,-999.9,0.0,-999,0.00,,,0.08,WeatherCatV1.24B11,2015-09-04 11:22:00,
2015-09-04 07:27:00,-999.9,-99.9,30.13,North,-9999,-999.9,0.0,-999,0.00,,,0.08,WeatherCatV1.24B11,2015-09-04 11:27:00,
2015-09-04 07:32:00,-999.9,-99.9,30.13,North,-9999,-999.9,0.0,-999,0.00,,,0.08,WeatherCatV1.24B11,2015-09-04 11:32:00,
2015-09-04 07:37:00,65.6,57.8,30.14,SSW,197,0.0,1.0,76,0.00,,,0.08,WeatherCatV1.24B11,2015-09-04 11:37:00,
2015-09-04 07:42:00,65.6,57.8,30.14,WSW,249,0.0,2.0,76,0.00,,,0.08,WeatherCatV1.24B11,2015-09-04 11:42:00,
2015-09-04 07:47:00,65.8,58.0,30.14,SW,214,0.0,1.0,76,0.00,,,0.08,WeatherCatV1.24B11,2015-09-04 11:47:00,
2015-09-04 07:52:00,65.9,58.8,30.14,SSE,163,0.0,0.0,78,0.00,,,0.08,WeatherCatV1.24B11,2015-09-04 11:52:00,
2015-09-04 07:57:00,66.0,58.6,30.14,South,184,2.0,2.0,77,0.00,,,0.08,WeatherCatV1.24B11,2015-09-04 11:57:00,
2015-09-04 08:02:00,66.2,58.8,30.14,SSW,203,0.0,2.0,77,0.00,,,0.08,WeatherCatV1.24B11,2015-09-04 12:02:00,
2015-09-04 08:07:00,66.3,59.2,30.15,SSW,195,1.0,2.0,78,0.00,,,0.08,WeatherCatV1.24B11,2015-09-04 12:07:00,
2015-09-04 08:12:00,66.3,58.9,30.15,SSW,210,0.0,3.0,77,0.00,,,0.08,WeatherCatV1.24B11,2015-09-04 12:12:00,
2015-09-04 08:17:00,66.3,58.9,30.15,North,359,0.0,3.0,77,0.00,,,0.08,WeatherCatV1.24B11,2015-09-04 12:17:00,
2015-09-04 08:22:00,66.4,58.6,30.15,SW,228,0.0,1.0,76,0.00,,,0.08,WeatherCatV1.24B11,2015-09-04 12:22:00,
2015-09-04 08:27:00,66.4,58.6,30.15,SSW,200,0.0,1.0,76,0.00,,,0.08,WeatherCatV1.24B11,2015-09-04 12:27:00,
2015-09-04 08:32:00,66.5,58.7,30.15,SSW,193,1.0,2.0,76,0.00,,,0.08,WeatherCatV1.24B11,2015-09-04 12:32:00,
2015-09-04 08:37:00,66.7,59.2,30.15,SW,221,0.0,1.0,77,0.00,,,0.08,WeatherCatV1.24B11,2015-09-04 12:37:00,
2015-09-04 08:42:00,67.0,59.2,30.15,SSE,163,0.0,3.0,76,0.00,,,0.08,WeatherCatV1.24B11,2015-09-04 12:42:00,
2015-09-04 08:47:00,67.5,60.0,30.15,SSW,198,2.0,2.0,77,0.00,,,0.08,WeatherCatV1.24B11,2015-09-04 12:47:00,
2015-09-04 08:52:00,67.9,59.7,30.15,SW,225,0.0,1.0,75,0.00,,,0.08,WeatherCatV1.24B11,2015-09-04 12:52:00,
2015-09-04 08:57:00,68.1,59.5,30.16,SSW,203,3.0,4.0,74,0.00,,,0.08,WeatherCatV1.24B11,2015-09-04 12:57:00,
2015-09-04 09:02:00,68.1,59.5,30.16,South,191,1.0,2.0,74,0.00,,,0.08,WeatherCatV1.24B11,2015-09-04 13:02:00,
2015-09-04 09:07:00,68.3,59.7,30.16,SE,145,1.0,3.0,74,0.00,,,0.08,WeatherCatV1.24B11,2015-09-04 13:07:00,
2015-09-04 09:12:00,68.3,58.9,30.16,SE,131,0.0,3.0,72,0.00,,,0.08,WeatherCatV1.24B11,2015-09-04 13:12:00,
2015-09-04 09:17:00,68.3,59.3,30.16,SSE,157,0.0,0.0,73,0.00,,,0.08,WeatherCatV1.24B11,2015-09-04 13:17:00,
2015-09-04 09:22:00,68.5,59.1,30.17,SE,140,0.0,3.0,72,0.00,,,0.08,WeatherCatV1.24B11,2015-09-04 13:22:00,
2015-09-04 09:27:00,68.6,59.2,30.17,SSW,213,0.0,1.0,72,0.00,,,0.08,WeatherCatV1.24B11,2015-09-04 13:27:00,
2015-09-04 09:32:00,68.7,59.3,30.17,SW,215,2.0,5.0,72,0.00,,,0.08,WeatherCatV1.24B11,2015-09-04 13:32:00,